Content
SEND FEEDBACK

Daily
Averages
Monthly
Summary
Philippines

QUEZON CITY, PHILIPPINES


Home > Asia > Philippines
Elevation: 151 feet     Latitude: 14 39N     Longitude: 121 03E

WEATHER
 
SELECT A DAY
Number of Records: 172,724;   Date Range: 7/1/96 - 9/16/14
 
SHARE

PRINT THIS DATA

[ ← Previous Day ]
WEATHER ALMANAC - FEBRUARY 16, 2013
[ Next Day → ]
[ °C ]   °F
Weather ElementAverageHighLow
Temperature82.7 °F91.4 °F (2:00 pm)75.2 °F (5:00 am)
Dewpoint67.8 °F80.6 °F (2:00 pm)62 °F (2:00 pm)
Humidity60 %78 % (2:00 am)28 % (2:00 pm)
Barometer29.88 in29.93 in (8:00 am)29.80 in (4:00 pm)
Wind Speed9.6 mph18.4 mph (5:00 pm)
Weather ElementAverage
Visibility6.1 mi
Wind DirectionESE (97.7 °)

Weather ElementTotal
Precipitation---
Cooling Degree Days18.3 (Base 65)
Growing Degree Days33.3 (Base 50)
Averaged from 31 records on February 16, 2013
WEATHER CONDITIONS BREAKOUT
WIND DIRECTION BREAKOUT
WEATHER BY HOUR - FEBRUARY 16, 2013
[ °C ]   °F
Local TimeTemperatureDewpointHumidityBarometerVisibilityWind DirectionWind SpeedGust SpeedPrecipitationEventsConditions
1:00 AM78.8 °F69.8 °F74 %29.86 in6.2 miESE (110°)8.1 mphPartly Cloudy
2:00 AM78.0 °F70.0 °F70 %29.87 in6.0 miESE (120°)4.5 mphHaze
2:00 AM77.0 °F69.8 °F78 %29.86 in6.2 miSE (130°)4.6 mphPartly Cloudy
3:00 AM77.0 °F69.8 °F78 %29.86 in6.2 miESE (110°)8.1 mphPartly Cloudy
4:00 AM77.0 °F69.8 °F78 %29.86 in6.2 miNE (50°)4.6 mphPartly Cloudy
5:00 AM76.0 °F68.0 °F71 %29.87 in6.0 miEast (80°)2.2 mphHaze
5:00 AM75.2 °F68.0 °F78 %29.86 in6.2 miEast (90°)4.6 mphPartly Cloudy
6:00 AM75.2 °F68.0 °F78 %29.89 in6.2 miCalmPartly Cloudy
7:00 AM78.8 °F69.8 °F74 %29.92 in6.2 miESE (110°)4.6 mphPartly Cloudy
8:00 AM80.0 °F68.0 °F58 %29.93 in6.0 miEast (100°)6.7 mphHaze
8:00 AM80.6 °F68.0 °F65 %29.92 in6.2 miEast (100°)8.1 mphPartly Cloudy
9:00 AM84.2 °F66.2 °F55 %29.92 in6.2 miESE (120°)10.4 mphPartly Cloudy
10:00 AM87.8 °F68.0 °F52 %29.92 in6.2 miESE (110°)9.2 mphPartly Cloudy
11:00 AM89.0 °F65.0 °F35 %29.92 in6.0 miEast (90°)11.2 mphHaze
11:00 AM89.6 °F64.4 °F43 %29.92 in6.2 miEast (90°)12.7 mphPartly Cloudy
12:00 PM89.6 °F62.6 °F40 %29.89 in6.2 miEast (90°)12.7 mphPartly Cloudy
1:00 PM89.6 °F64.4 °F43 %29.86 in6.2 miESE (110°)12.7 mphPartly Cloudy
2:00 PM91.0 °F62.0 °F28 %29.85 in6.0 miEast (90°)13.4 mphScattered Clouds
2:00 PM91.4 °F80.6 °F71 %29.83 in6.2 miEast (90°)13.8 mphPartly Cloudy
3:00 PM91.4 °F62.6 °F38 %29.83 in6.2 miEast (80°)15.0 mphPartly Cloudy
4:00 PM87.8 °F66.2 °F49 %29.80 in6.2 miEast (90°)9.2 mphPartly Cloudy
5:00 PM86.0 °F66.0 °F42 %29.84 in6.0 miESE (110°)17.9 mphScattered Clouds
5:00 PM86.0 °F66.2 °F51 %29.83 in6.2 miESE (110°)18.4 mphPartly Cloudy
6:00 PM82.4 °F66.2 °F58 %29.86 in6.2 miESE (110°)6.9 mphPartly Cloudy
7:00 PM82.4 °F68.0 °F62 %29.89 in6.2 miEast (100°)11.5 mphPartly Cloudy
8:00 PM81.0 °F69.0 °F60 %29.91 in6.0 miEast (100°)11.2 mphHaze
8:00 PM80.6 °F69.8 °F70 %29.89 in6.2 miEast (100°)11.5 mphPartly Cloudy
9:00 PM80.6 °F68.0 °F65 %29.92 in6.2 miESE (120°)16.1 mphPartly Cloudy
10:00 PM80.6 °F68.0 °F65 %29.92 in6.2 miESE (110°)6.9 mphPartly Cloudy
11:00 PM80.0 °F69.0 °F61 %29.91 in6.0 miESE (110°)8.9 mphHaze
11:00 PM80.6 °F69.8 °F70 %29.89 in6.2 miEast (100°)10.4 mphPartly Cloudy
Hourly data recorded from RPLL, located miles away from Quezon City, Philippines







STORIES FROM OUR PARTNERS